SCP
-0 -0 -0 -0 -0 -0 -0 0 0 0 0 0 0 0 0 0 0 0 0 0 0 0 0 0 0 0 0 0 0 0 0 0 0 0 0 0 0 0 0 0 0 0 0 0 0
-0 -0 -0 -0 -0 -0 -0 -0 0 0 0 0 0 0 0 0 0 0 0 0 0 0 0 0 0 0 0 0 0 0 0 0 0 0 0 0 0 0 0 0 0 0 0 0 0
0 0 -0 -0 -0 -0 0 -0 -0 0 0 0 0 0 0 0 0 0 0 0 0 0 0 0 0 0 0 0 0 0 0 0 0 0 0 0 0 0 0 0 0 0 0 0 0
0 0 0 0 0 -0 -0 -0 -0 0 -0 0 -0 0 0 0 0 0 0 0 0 0 0 0 0 0 0 0 0 0 0 0 0 0 0 0 0 0 0 0 0 0 0 0 0
0 0 0 0 0 -0 -0 -0 -0 -0 0 0 0 -0 0 0 0 0 0 0 0 0 0 0 0 0 0 0 0 0 0 0 0 0 0 0 0 0 0 0 0 0 0 0 0
0 0 0 -0 -0 -0 0 -0 -0 -0 -0 0 0 0 0 -0 0 -0 0 0 0 0 0 0 0 0 0 0 0 0 0 -0 -0 0 0 0 0 0 0 0 0 0 0 0 0
0 0 0 -0 -0 -0 0 -0 -0 -0 -0 -0 -0 0 -0 0 0 -0 -0 0 0 0 0 0 0 0 0 0 0 0 0 0 0 0 0 0 0 -0 -0 0 0 0 0 0 0
0 0 0 0 -0 -0 0 -0 -0 0 0 -0 -0 -0 -0 0 0 -0 -0 0 -0 0 0 0 0 0 0 0 0 0 0 0 0 0 0 0 0 0 0 0 0 0 0 0 0
0 0 0 0 -0 -0 -0 0 -0 -0 0 -0 -0 -0 -0 -0 -0 -0 -0 0 0 0 0 0 0 0 0 0 0 0 0 0 0 0 0 0 0 0 0 0 0 0 0 0 0
-0 0 0 0 -0 -0 0 0 0 0 -0 -0 -0 -0 0 -0 -0 -0 -0 0 0 -0 0 0 0 -0 0 0 0 0 0 0 0 0 0 0 0 0 0 0 0 -0 -0 0 0
-0 0 -0 -0 -0 -0 0 0 0 0 -0 -0 -0 -0 -0 0 0 -0 -0 -0 0 0 0 0 -0 -0 0 0 0 0 0 0 0 0 0 0 0 0 0 0 0 0 0 0 0
-0 -0 -0 -0 -0 -0 0 0 0 0 -0 0 -0 -0 -0 -0 -0 -0 -0 0 0 0 -0 0 -0 0 0 0 0 0 0 0 0 0 0 0 0 0 0 0 0 0 0 0 0
-0 0 -0 0 0 0 0 0 -0 0 0 0 -0 -0 -0 -0 -0 -0 -0 -0 -0 0 0 0 0 0 0 0 0 0 0 0 -0 -0 -0 0 -0 0 0 0 0 0 0 0 0
-0 -0 -0 0 0 0 0 -0 -0 -0 0 -0 -0 -0 0 -0 -0 -0 -0 -0 -0 0 -0 0 0 0 0 0 0 -0 0 0 -0 -0 -0 -0 -0 0 0 0 0 0 0 0 0
-0 -0 -0 0 0 0 0 0 0 -0 0 -0 -0 -0 -0 -0 -0 0 -0 -0 0 0 -0 0 0 0 0 0 0 0 -0 -0 -0 -0 -0 0 -0 0 0 0 0 0 0 0 0
-0 -0 -0 0 0 0 0 0 0 0 0 0 0 -0 -0 -0 -0 -0 0 0 0 -0 0 0 0 0 0 0 0 0 -0 -0 0 -0 -0 0 0 0 0 0 0 0 0 0 0
-0 -0 -0 0 0 0 0 0 -0 -0 0 0 0 0 0 -0 0 -0 -0 0 -0 -0 -0 -0 0 0 0 0 0 0 0 -0 -0 -0 -0 0 0 0 0 0 0 0 0 0 0
-0 0 0 0 0 0 0 -0 -0 0 0 0 0 0 0 -0 0 -0 -0 0 0 0 0 0 0 0 0 0 -0 -0 -0 -0 -0 -0 -0 0 0 0 0 0 0 0 0 0 0
-0 -0 0 0 0 0 0 -0 -0 0 0 0 0 0 0 0 0 0 0 0 0 0 0 0 0 0 0 0 0 0 0 0 0 0 0 -0 0 0 0 0 0 0 0 0 0
0 0 0 -0 -0 0 0 -0 0 0 0 0 0 0 0 0 0 0 0 0 0 0 0 0 0 0 0 0 0 0 0 0 0 0 0 0 0 0 0 0 0 -0 -0 -0 -0
0 0 0 -0 0 0 -0 -0 0 0 0 0 0 0 0 0 0 0 0 0 0 0 0 0 0 0 0 0 0 0 0 0 0 0 0 0 0 0 0 0 -0 -0 -0 -0 0
0 0 0 -0 0 -0 0 0 0 0 0 0 0 0 0 0 0 0 0 0 0 0 0 0 0 0 0 0 0 0 0 0 0 0 0 0 0 -0 0 0 0 0 -0 -0 -0
0 0 0 0 0 0 0 0 0 0 0 0 0 0 0 0 0 0 0 0 0 0 0 0 0 0 0 0 0 0 0 0 0 0 0 0 0 0 0 0 0 0 0 0 0
0 0 0 0 0 0 0 0 0 0 0 0 0 0 0 0 0 0 0 0 0 0 0 0 0 0 0 0 0 0 0 0 0 0 0 0 0 0 -0 0 0 -0 0 0 -0
0 0 0 0 0 0 0 0 0 0 0 0 0 0 0 0 0 0 0 0 0 0 0 0 0 0 0 0 0 0 0 0 0 0 0 0 0 0 0 0 0 0 0 0 0
0 0 0 0 0 0 0 0 0 0 0 0 0 0 0 0 0 0 0 0 0 0 0 0 0 0 0 0 0 0 0 0 0 0 0 0 0 0 0 0 0 0 0 0 0
0 0 0 0 0 0 0 0 0 0 0 0 0 0 0 0 0 0 0 0 0 0 0 0 0 0 0 0 0 0 0 0 0 0 0 0 0 0 0 0 0 0 0 0 0
Wind_Speed_500mb
42 41 41 42 41 40 40 37 33 27 23 20 15 8 11 31 34 17 30 26 23 14 14 13 8 11 15 7 5 5 8 7 6 4 5 13 22 20 18 15 16 11 11 10 11
41 40 40 43 43 45 44 40 30 24 22 21 16 5 4 14 19 43 32 21 19 15 8 7 14 8 9 8 5 3 7 6 2 10 15 30 21 29 20 30 20 17 20 21 15
44 42 42 44 46 48 47 38 28 29 25 21 16 11 6 14 16 30 30 19 15 15 8 3 8 15 5 5 8 7 6 4 10 20 25 33 36 14 18 22 13 15 20 21 20
45 44 43 44 46 47 46 36 27 29 28 22 19 24 14 20 9 41 33 22 10 6 7 3 9 11 10 12 17 8 10 9 14 16 24 24 32 28 32 45 36 29 32 28 26
43 45 44 45 45 46 49 44 31 26 31 28 21 16 20 36 27 38 24 19 14 6 3 1 7 5 5 3 6 14 10 6 17 40 37 28 31 32 51 48 44 38 42 35 31
41 43 43 46 44 43 46 47 35 39 48 40 30 27 27 56 43 36 23 16 14 12 7 3 1 4 3 3 3 2 6 15 18 30 26 20 27 4 26 29 31 28 30 25 27
40 41 41 44 40 38 37 40 36 29 29 25 18 34 76 36 54 41 22 19 16 16 10 6 2 3 3 1 5 5 9 12 8 5 8 13 19 11 9 23 36 34 33 37 32
40 41 40 39 37 25 33 30 32 33 19 14 19 40 24 53 54 28 27 23 21 14 8 9 10 12 13 13 2 7 1 4 13 23 7 16 26 11 12 49 53 46 41 45 43
39 40 40 38 39 29 15 20 22 29 48 28 26 15 13 41 75 51 43 35 20 15 19 16 23 20 22 10 5 16 7 19 18 32 17 16 33 25 54 53 60 50 52 49 54
38 39 40 39 41 35 14 15 48 11 6 10 53 13 39 46 44 63 20 42 28 10 13 24 18 21 27 24 8 17 8 13 21 20 32 33 32 33 53 49 51 49 43 44 44
37 39 40 38 45 42 23 6 4 16 65 38 27 18 22 33 36 70 44 42 36 29 11 26 27 25 22 19 9 9 14 21 21 15 33 22 34 38 54 40 49 50 55 56 52
36 36 36 32 43 37 25 21 23 21 31 35 29 38 35 25 26 81 53 25 44 27 5 10 31 24 14 21 12 14 13 18 23 34 26 30 34 27 49 46 51 57 62 65 65
35 35 35 28 32 39 42 31 17 17 10 23 36 46 52 26 28 56 52 18 19 25 28 26 16 17 19 34 27 12 22 24 23 31 23 26 8 20 21 49 54 62 59 63 67
37 36 35 36 24 37 41 24 14 12 7 32 29 29 54 8 14 51 42 17 11 18 9 15 19 18 22 27 23 16 30 30 31 24 14 19 9 16 28 36 51 62 67 71 73
38 37 37 33 27 37 24 14 9 5 7 28 16 22 28 25 20 46 46 16 17 16 8 9 15 22 18 21 18 10 41 31 33 23 15 14 7 18 29 39 50 62 69 70 69
36 35 37 37 37 34 25 11 5 3 6 9 15 25 18 30 19 30 40 21 11 5 17 10 6 11 19 26 11 38 23 7 5 5 6 4 12 24 18 28 39 57 66 68 72
30 33 38 37 38 33 24 7 7 12 7 16 12 17 11 19 18 27 19 38 18 12 17 11 13 6 32 20 7 36 20 8 4 3 7 2 14 7 15 24 30 38 52 59 61
26 27 37 37 30 29 20 5 16 1 5 7 9 10 11 24 12 19 9 13 32 18 11 15 1 21 28 18 14 18 12 6 9 9 21 26 12 9 13 28 35 40 47 57 64
19 29 38 28 31 26 9 14 4 6 5 13 5 7 6 8 11 12 15 9 16 23 9 13 4 7 14 13 18 9 8 9 7 6 8 8 8 15 15 31 50 59 60 60 63
13 6 37 21 27 20 15 10 4 3 2 3 7 8 7 14 13 12 9 7 5 16 5 3 12 6 10 6 17 11 13 1 3 8 10 10 22 16 22 34 39 52 55 55 57
9 8 26 15 15 24 9 5 6 4 2 3 1 1 2 6 7 5 5 4 5 13 8 4 1 4 8 9 7 7 7 7 5 6 7 11 8 5 4 23 38 51 51 48 51
10 7 21 12 16 11 5 9 7 7 3 3 3 2 1 2 3 1 2 2 5 10 5 5 1 9 7 21 10 7 4 5 4 4 9 13 18 20 19 53 67 48 50 46 45
8 6 20 10 6 5 2 5 4 7 6 7 6 4 3 3 4 4 3 4 5 4 4 1 2 10 5 8 3 5 9 15 11 6 27 12 12 20 62 58 56 49 48 49 52
6 4 15 22 18 13 9 5 6 4 5 5 6 6 4 5 7 3 4 4 12 9 14 12 9 13 14 19 12 27 28 25 11 12 16 33 47 42 40 38 45 36 41 43 48
9 6 5 3 6 11 6 10 8 9 7 10 7 15 10 6 5 7 7 7 18 19 9 10 11 18 27 36 33 40 50 38 36 40 26 51 46 45 40 39 47 44 38 42 42
6 7 8 9 13 11 2 12 15 7 14 9 12 15 18 11 15 11 11 9 17 8 10 10 14 4 11 31 35 40 46 42 47 46 49 50 55 53 53 39 51 46 36 40 39
12 12 8 12 10 7 7 12 20 16 16 12 22 11 17 31 28 29 30 35 32 21 11 8 8 5 16 8 17 24 26 39 33 31 27 36 37 45 35 46 46 42 38 40 39
Wind_Direction_500mb
40 36 30 24 18 12 7 3 358 351 352 349 342 342 83 78 73 82 39 5 352 342 309 300 315 1 355 53 69 160 209 210 257 214 26 356 347 344 321 290 297 263 289 274 252
38 33 27 20 16 11 5 358 357 3 7 5 4 46 97 159 74 47 28 9 3 358 314 269 284 333 326 18 35 319 241 179 17 336 340 323 329 326 319 314 305 279 276 280 217
32 29 24 18 17 14 11 15 16 25 23 26 37 53 111 148 75 7 8 9 11 6 346 250 189 204 145 61 4 356 271 15 304 321 328 312 309 319 313 302 356 328 338 296 237
29 28 25 18 18 19 15 9 15 28 33 48 65 78 94 142 46 348 359 359 351 17 358 95 165 180 169 178 173 201 281 292 313 319 315 313 306 295 284 276 290 291 308 313 273
26 28 27 21 21 25 24 22 22 46 63 66 77 105 93 66 10 347 347 349 357 357 22 21 158 164 183 160 174 227 215 227 292 300 293 286 281 290 279 285 292 292 295 281 272
23 27 31 26 26 33 30 27 55 91 79 80 83 91 84 60 9 6 346 356 7 24 47 77 334 216 159 182 225 271 276 273 260 255 268 284 291 247 292 335 318 327 318 312 288
21 23 29 32 27 35 39 45 71 89 76 88 66 65 62 31 20 23 16 16 29 16 29 62 111 10 355 10 346 296 294 296 299 331 316 316 263 219 337 11 344 338 338 346 337
17 18 23 30 34 31 35 62 87 86 99 64 61 69 75 32 26 32 51 45 16 34 53 34 53 72 15 316 326 315 268 324 36 12 27 350 282 343 311 336 321 321 322 322 323
17 15 18 22 26 30 78 91 94 91 66 56 57 70 23 11 24 21 23 16 30 60 51 57 70 54 19 355 112 37 3 340 328 341 333 346 304 302 317 323 312 318 320 321 322
17 16 15 18 23 30 46 96 60 166 322 18 35 63 15 353 7 13 32 27 23 94 33 48 57 48 28 25 36 335 335 316 309 332 340 315 301 317 311 304 315 338 336 345 348
17 17 14 16 19 26 28 129 93 41 60 71 48 64 355 9 14 21 22 26 32 51 62 43 61 26 12 13 337 320 311 317 326 339 337 313 310 308 301 10 29 13 5 4 0
19 18 16 15 22 26 44 78 87 124 77 51 48 35 17 18 9 15 22 40 31 45 34 79 41 15 71 31 37 50 21 351 312 324 324 320 318 318 66 50 36 23 14 8 1
22 19 18 17 26 27 41 67 95 113 89 25 28 21 10 36 36 4 11 7 24 45 52 68 13 25 37 31 12 55 26 339 307 317 292 335 312 27 58 45 31 25 18 14 9
23 23 24 22 20 21 37 52 79 106 94 358 358 17 4 69 53 13 16 14 51 28 20 61 17 25 34 30 359 325 351 320 303 320 315 8 297 43 359 21 18 12 9 7 6
24 22 26 30 27 25 24 43 91 77 75 347 356 357 21 63 331 9 16 41 35 16 307 49 14 19 19 356 338 323 312 286 294 295 317 19 264 1 30 1 0 2 3 1 359
23 27 20 24 23 14 12 36 73 50 41 5 356 360 13 24 21 353 16 39 36 29 51 42 33 38 337 328 352 330 310 309 171 199 232 56 339 51 16 355 351 358 360 359 354
24 27 18 18 12 6 5 33 45 68 335 343 347 351 21 5 15 12 37 45 32 1 6 339 52 30 6 343 15 1 4 349 21 344 324 297 333 45 33 22 15 4 360 0 357
24 32 22 22 25 9 6 58 64 84 308 349 339 341 44 7 35 11 36 43 33 19 31 9 346 13 4 31 317 340 349 28 313 312 303 312 259 100 63 24 15 10 0 359 358
29 40 29 47 22 8 21 51 97 194 325 330 318 26 26 30 5 20 48 56 32 16 36 351 303 331 20 7 359 348 34 334 275 243 269 242 136 192 31 17 9 4 358 359 356
28 66 27 31 20 18 67 108 141 205 334 318 31 16 338 348 14 31 36 32 54 24 347 55 292 37 330 341 40 33 355 208 29 296 286 265 290 262 15 8 2 358 355 347 349
62 86 19 26 36 51 77 118 149 164 179 11 155 317 38 341 2 17 18 118 28 19 55 88 329 323 304 37 359 20 32 19 296 269 282 300 266 135 343 354 353 346 344 338 342
66 65 13 28 45 53 87 161 147 153 149 139 138 168 245 329 313 328 319 184 134 34 33 30 298 286 300 317 267 324 42 43 309 297 266 277 275 283 310 327 327 326 331 332 332
71 76 32 51 93 87 130 128 165 152 174 169 174 207 183 224 305 239 253 205 167 47 24 47 254 303 194 117 146 273 296 300 306 261 248 258 257 326 319 314 316 315 321 324 325
79 59 34 62 87 120 143 158 161 188 187 189 174 163 159 233 223 259 237 269 177 242 297 200 224 228 262 295 306 288 278 277 237 255 272 246 281 296 304 319 326 312 314 321 325
65 82 76 71 76 115 124 150 152 185 215 195 202 211 183 196 224 233 247 262 272 283 256 199 251 251 251 270 279 278 278 272 252 244 254 276 287 285 293 305 309 305 310 325 327
94 137 110 117 132 131 186 205 180 188 174 217 221 204 198 193 206 210 217 250 258 261 178 190 266 323 273 267 275 281 273 265 259 260 258 261 270 278 282 298 309 297 298 319 322
114 133 143 159 154 167 209 180 200 177 220 211 208 215 223 235 250 261 261 258 249 233 228 229 254 270 288 333 310 276 258 251 246 248 250 252 273 304 294 306 311 307 292 306 313
Wind_Speed_850mb
42 41 41 42 41 40 40 37 33 27 23 20 15 8 11 31 34 17 30 26 23 14 14 13 8 11 15 7 5 5 8 7 6 4 5 13 22 20 18 15 16 11 11 10 11
41 40 40 43 43 45 44 40 30 24 22 21 16 5 4 14 19 43 32 21 19 15 8 7 14 8 9 8 5 3 7 6 2 10 15 30 21 29 20 30 20 17 20 21 15
44 42 42 44 46 48 47 38 28 29 25 21 16 11 6 14 16 30 30 19 15 15 8 3 8 15 5 5 8 7 6 4 10 20 25 33 36 14 18 22 13 15 20 21 20
45 44 43 44 46 47 46 36 27 29 28 22 19 24 14 20 9 41 33 22 10 6 7 3 9 11 10 12 17 8 10 9 14 16 24 24 32 28 32 45 36 29 32 28 26
43 45 44 45 45 46 49 44 31 26 31 28 21 16 20 36 27 38 24 19 14 6 3 1 7 5 5 3 6 14 10 6 17 40 37 28 31 32 51 48 44 38 42 35 31
41 43 43 46 44 43 46 47 35 39 48 40 30 27 27 56 43 36 23 16 14 12 7 3 1 4 3 3 3 2 6 15 18 30 26 20 27 4 26 29 31 28 30 25 27
40 41 41 44 40 38 37 40 36 29 29 25 18 34 76 36 54 41 22 19 16 16 10 6 2 3 3 1 5 5 9 12 8 5 8 13 19 11 9 23 36 34 33 37 32
40 41 40 39 37 25 33 30 32 33 19 14 19 40 24 53 54 28 27 23 21 14 8 9 10 12 13 13 2 7 1 4 13 23 7 16 26 11 12 49 53 46 41 45 43
39 40 40 38 39 29 15 20 22 29 48 28 26 15 13 41 75 51 43 35 20 15 19 16 23 20 22 10 5 16 7 19 18 32 17 16 33 25 54 53 60 50 52 49 54
38 39 40 39 41 35 14 15 48 11 6 10 53 13 39 46 44 63 20 42 28 10 13 24 18 21 27 24 8 17 8 13 21 20 32 33 32 33 53 49 51 49 43 44 44
37 39 40 38 45 42 23 6 4 16 65 38 27 18 22 33 36 70 44 42 36 29 11 26 27 25 22 19 9 9 14 21 21 15 33 22 34 38 54 40 49 50 55 56 52
36 36 36 32 43 37 25 21 23 21 31 35 29 38 35 25 26 81 53 25 44 27 5 10 31 24 14 21 12 14 13 18 23 34 26 30 34 27 49 46 51 57 62 65 65
35 35 35 28 32 39 42 31 17 17 10 23 36 46 52 26 28 56 52 18 19 25 28 26 16 17 19 34 27 12 22 24 23 31 23 26 8 20 21 49 54 62 59 63 67
37 36 35 36 24 37 41 24 14 12 7 32 29 29 54 8 14 51 42 17 11 18 9 15 19 18 22 27 23 16 30 30 31 24 14 19 9 16 28 36 51 62 67 71 73
38 37 37 33 27 37 24 14 9 5 7 28 16 22 28 25 20 46 46 16 17 16 8 9 15 22 18 21 18 10 41 31 33 23 15 14 7 18 29 39 50 62 69 70 69
36 35 37 37 37 34 25 11 5 3 6 9 15 25 18 30 19 30 40 21 11 5 17 10 6 11 19 26 11 38 23 7 5 5 6 4 12 24 18 28 39 57 66 68 72
30 33 38 37 38 33 24 7 7 12 7 16 12 17 11 19 18 27 19 38 18 12 17 11 13 6 32 20 7 36 20 8 4 3 7 2 14 7 15 24 30 38 52 59 61
26 27 37 37 30 29 20 5 16 1 5 7 9 10 11 24 12 19 9 13 32 18 11 15 1 21 28 18 14 18 12 6 9 9 21 26 12 9 13 28 35 40 47 57 64
19 29 38 28 31 26 9 14 4 6 5 13 5 7 6 8 11 12 15 9 16 23 9 13 4 7 14 13 18 9 8 9 7 6 8 8 8 15 15 31 50 59 60 60 63
13 6 37 21 27 20 15 10 4 3 2 3 7 8 7 14 13 12 9 7 5 16 5 3 12 6 10 6 17 11 13 1 3 8 10 10 22 16 22 34 39 52 55 55 57
9 8 26 15 15 24 9 5 6 4 2 3 1 1 2 6 7 5 5 4 5 13 8 4 1 4 8 9 7 7 7 7 5 6 7 11 8 5 4 23 38 51 51 48 51
10 7 21 12 16 11 5 9 7 7 3 3 3 2 1 2 3 1 2 2 5 10 5 5 1 9 7 21 10 7 4 5 4 4 9 13 18 20 19 53 67 48 50 46 45
8 6 20 10 6 5 2 5 4 7 6 7 6 4 3 3 4 4 3 4 5 4 4 1 2 10 5 8 3 5 9 15 11 6 27 12 12 20 62 58 56 49 48 49 52
6 4 15 22 18 13 9 5 6 4 5 5 6 6 4 5 7 3 4 4 12 9 14 12 9 13 14 19 12 27 28 25 11 12 16 33 47 42 40 38 45 36 41 43 48
9 6 5 3 6 11 6 10 8 9 7 10 7 15 10 6 5 7 7 7 18 19 9 10 11 18 27 36 33 40 50 38 36 40 26 51 46 45 40 39 47 44 38 42 42
6 7 8 9 13 11 2 12 15 7 14 9 12 15 18 11 15 11 11 9 17 8 10 10 14 4 11 31 35 40 46 42 47 46 49 50 55 53 53 39 51 46 36 40 39
12 12 8 12 10 7 7 12 20 16 16 12 22 11 17 31 28 29 30 35 32 21 11 8 8 5 16 8 17 24 26 39 33 31 27 36 37 45 35 46 46 42 38 40 39
Wind_Direction_850mb
40 36 30 24 18 12 7 3 358 351 352 349 342 342 83 78 73 82 39 5 352 342 309 300 315 1 355 53 69 160 209 210 257 214 26 356 347 344 321 290 297 263 289 274 252
38 33 27 20 16 11 5 358 357 3 7 5 4 46 97 159 74 47 28 9 3 358 314 269 284 333 326 18 35 319 241 179 17 336 340 323 329 326 319 314 305 279 276 280 217
32 29 24 18 17 14 11 15 16 25 23 26 37 53 111 148 75 7 8 9 11 6 346 250 189 204 145 61 4 356 271 15 304 321 328 312 309 319 313 302 356 328 338 296 237
29 28 25 18 18 19 15 9 15 28 33 48 65 78 94 142 46 348 359 359 351 17 358 95 165 180 169 178 173 201 281 292 313 319 315 313 306 295 284 276 290 291 308 313 273
26 28 27 21 21 25 24 22 22 46 63 66 77 105 93 66 10 347 347 349 357 357 22 21 158 164 183 160 174 227 215 227 292 300 293 286 281 290 279 285 292 292 295 281 272
23 27 31 26 26 33 30 27 55 91 79 80 83 91 84 60 9 6 346 356 7 24 47 77 334 216 159 182 225 271 276 273 260 255 268 284 291 247 292 335 318 327 318 312 288
21 23 29 32 27 35 39 45 71 89 76 88 66 65 62 31 20 23 16 16 29 16 29 62 111 10 355 10 346 296 294 296 299 331 316 316 263 219 337 11 344 338 338 346 337
17 18 23 30 34 31 35 62 87 86 99 64 61 69 75 32 26 32 51 45 16 34 53 34 53 72 15 316 326 315 268 324 36 12 27 350 282 343 311 336 321 321 322 322 323
17 15 18 22 26 30 78 91 94 91 66 56 57 70 23 11 24 21 23 16 30 60 51 57 70 54 19 355 112 37 3 340 328 341 333 346 304 302 317 323 312 318 320 321 322
17 16 15 18 23 30 46 96 60 166 322 18 35 63 15 353 7 13 32 27 23 94 33 48 57 48 28 25 36 335 335 316 309 332 340 315 301 317 311 304 315 338 336 345 348
17 17 14 16 19 26 28 129 93 41 60 71 48 64 355 9 14 21 22 26 32 51 62 43 61 26 12 13 337 320 311 317 326 339 337 313 310 308 301 10 29 13 5 4 0
19 18 16 15 22 26 44 78 87 124 77 51 48 35 17 18 9 15 22 40 31 45 34 79 41 15 71 31 37 50 21 351 312 324 324 320 318 318 66 50 36 23 14 8 1
22 19 18 17 26 27 41 67 95 113 89 25 28 21 10 36 36 4 11 7 24 45 52 68 13 25 37 31 12 55 26 339 307 317 292 335 312 27 58 45 31 25 18 14 9
23 23 24 22 20 21 37 52 79 106 94 358 358 17 4 69 53 13 16 14 51 28 20 61 17 25 34 30 359 325 351 320 303 320 315 8 297 43 359 21 18 12 9 7 6
24 22 26 30 27 25 24 43 91 77 75 347 356 357 21 63 331 9 16 41 35 16 307 49 14 19 19 356 338 323 312 286 294 295 317 19 264 1 30 1 0 2 3 1 359
23 27 20 24 23 14 12 36 73 50 41 5 356 360 13 24 21 353 16 39 36 29 51 42 33 38 337 328 352 330 310 309 171 199 232 56 339 51 16 355 351 358 360 359 354
24 27 18 18 12 6 5 33 45 68 335 343 347 351 21 5 15 12 37 45 32 1 6 339 52 30 6 343 15 1 4 349 21 344 324 297 333 45 33 22 15 4 360 0 357
24 32 22 22 25 9 6 58 64 84 308 349 339 341 44 7 35 11 36 43 33 19 31 9 346 13 4 31 317 340 349 28 313 312 303 312 259 100 63 24 15 10 0 359 358
29 40 29 47 22 8 21 51 97 194 325 330 318 26 26 30 5 20 48 56 32 16 36 351 303 331 20 7 359 348 34 334 275 243 269 242 136 192 31 17 9 4 358 359 356
28 66 27 31 20 18 67 108 141 205 334 318 31 16 338 348 14 31 36 32 54 24 347 55 292 37 330 341 40 33 355 208 29 296 286 265 290 262 15 8 2 358 355 347 349
62 86 19 26 36 51 77 118 149 164 179 11 155 317 38 341 2 17 18 118 28 19 55 88 329 323 304 37 359 20 32 19 296 269 282 300 266 135 343 354 353 346 344 338 342
66 65 13 28 45 53 87 161 147 153 149 139 138 168 245 329 313 328 319 184 134 34 33 30 298 286 300 317 267 324 42 43 309 297 266 277 275 283 310 327 327 326 331 332 332
71 76 32 51 93 87 130 128 165 152 174 169 174 207 183 224 305 239 253 205 167 47 24 47 254 303 194 117 146 273 296 300 306 261 248 258 257 326 319 314 316 315 321 324 325
79 59 34 62 87 120 143 158 161 188 187 189 174 163 159 233 223 259 237 269 177 242 297 200 224 228 262 295 306 288 278 277 237 255 272 246 281 296 304 319 326 312 314 321 325
65 82 76 71 76 115 124 150 152 185 215 195 202 211 183 196 224 233 247 262 272 283 256 199 251 251 251 270 279 278 278 272 252 244 254 276 287 285 293 305 309 305 310 325 327
94 137 110 117 132 131 186 205 180 188 174 217 221 204 198 193 206 210 217 250 258 261 178 190 266 323 273 267 275 281 273 265 259 260 258 261 270 278 282 298 309 297 298 319 322
114 133 143 159 154 167 209 180 200 177 220 211 208 215 223 235 250 261 261 258 249 233 228 229 254 270 288 333 310 276 258 251 246 248 250 252 273 304 294 306 311 307 292 306 313